Printer-friendly version
Follow the MPC on Twitter Follow the MPC on Facebook The MPC blog
Minor Planet Center

MPEC 2000-L03 : 2000 KW43

The following Minor Planet Electronic Circular may be linked-to from your own Web pages, but must not otherwise be redistributed electronically.

A form allowing access to any MPEC is at the bottom of this page.


Read MPEC 2000-L02 Read MPEC 2000-L04


M.P.E.C. 2000-L03                                Issued 2000 June 1, 22:15 UT

     The Minor Planet Electronic Circulars contain information on unusual
         minor planets and routine data on comets.  They are published
   on behalf of Commission 20 of the International Astronomical Union by the
          Minor Planet Center, Smithsonian Astrophysical Observatory,
                          Cambridge, MA 02138, U.S.A.

             Prepared using the Tamkin Foundation Computer Network

             BMARSDEN@CFA.HARVARD.EDU or GWILLIAMS@CFA.HARVARD.EDU
          URL http://cfa-www.harvard.edu/iau/mpc.html  ISSN 1523-6714

                                   2000 KW43

Observations:
     K00K43W* C2000 05 29.30429 15 50 58.70 +22 47 25.0          18.8        704
     K00K43W  C2000 05 29.31845 15 50 55.83 +22 45 30.3          19.2        704
     K00K43W  C2000 05 29.33278 15 50 52.88 +22 43 32.4          19.1        704
     K00K43W  C2000 05 29.34691 15 50 50.08 +22 41 37.7          19.2        704
     K00K43W  C2000 05 29.36172 15 50 47.13 +22 39 35.9          19.2        704
     K00K43W  C2000 05 29.87505 15 49 13.47 +21 30 11.5                      557
     K00K43W  C2000 05 29.87587 15 49 13.41 +21 30 04.8                      557
     K00K43W  C2000 05 29.87669 15 49 13.23 +21 29 57.6                      557
     K00K43W  C2000 05 29.87752 15 49 13.13 +21 29 51.7          19   V      557
     K00K43W  C2000 05 29.91878 15 49 05.37 +21 24 21.3                      611
     K00K43W  C2000 05 29.92043 15 49 04.96 +21 24 08.3                      611
     K00K43W  C2000 05 29.92190 15 49 04.70 +21 23 56.2                      611
     K00K43W  C2000 05 29.98532 15 48 52.35 +21 15 25.4                      046
     K00K43W  C2000 05 29.98635 15 48 52.12 +21 15 18.4          18.3 R      046
     K00K43W  C2000 05 30.23052 15 48 09.47 +20 42 54.5          18.6        704
     K00K43W  C2000 05 30.24382 15 48 06.99 +20 41 08.6          18.8        704
     K00K43W  C2000 05 30.25712 15 48 04.43 +20 39 23.0          18.8        704
     K00K43W  C2000 05 30.27041 15 48 01.78 +20 37 36.8          19.0        704
     K00K43W  C2000 05 30.28381 15 47 59.33 +20 35 49.2          18.8        704
     K00K43W  C2000 05 30.29953 15 47 56.27 +20 33 45.9          18.9        704
     K00K43W WC2000 05 30.30045 15 47 56.61 +20 33 35.0                      670
     K00K43W WC2000 05 30.30237 15 47 56.15 +20 33 19.7                      670
     K00K43W  C2000 05 30.31318 15 47 53.77 +20 31 54.9          19.4        704
     K00K43W 1C2000 05 30.31660 15 47 53.67 +20 31 20.1                      658
     K00K43W 1C2000 05 30.31862 15 47 53.29 +20 31 03.3                      658
     K00K43W  C2000 05 30.32653 15 47 51.24 +20 30 08.7          19.1        704
     K00K43W 1C2000 05 30.32751 15 47 51.64 +20 29 53.3                      658
     K00K43W  C2000 05 30.33989 15 47 48.68 +20 28 22.5          19.2        704
     K00K43W  C2000 05 30.35326 15 47 46.19 +20 26 35.3          19.1        704
     K00K43W  C2000 05 31.22700 15 45 17.36 +18 32 14.2                      837
     K00K43W  C2000 05 31.23204 15 45 16.48 +18 31 35.5                      837
     K00K43W  C2000 05 31.23626 15 45 15.84 +18 31 03.5                      837
     K00K43W  C2000 05 31.24049 15 45 14.99 +18 30 29.2          17.9        837
     K00K43W  C2000 05 31.94237 15 43 22.21 +17 00 28.6                      046
     K00K43W  C2000 05 31.94336 15 43 22.09 +17 00 19.6                      046
     K00K43W  C2000 05 31.94398 15 43 22.00 +17 00 16.4                      046
     K00K43W  C2000 05 31.94471 15 43 21.84 +17 00 10.8                      046
     K00K43W  C2000 05 31.94536 15 43 21.69 +17 00 05.7                      046
     K00K43W  C2000 05 31.94640 15 43 21.59 +16 59 57.6          17.9 R      046
     K00K43W  C2000 06 01.86278 15 41 02.77 +15 05 35.2                      118
     K00K43W  C2000 06 01.86662 15 41 02.18 +15 05 06.5                      118
     K00K43W  C2000 06 01.86780 15 41 01.96 +15 04 57.9                      118

Observer details:
046 Klet.  Observers M. Tichy, Z. Moravec.  0.57-m f/5.2 reflector + CCD.
118 Modra.  Observers L. Kornos, S. Gajdos.  0.6-m f/5.5 reflector + CCD.
557 Ondrejov.  Observers P. Pravec, P. Kusnirak.  0.65-m f/3.6 reflector + CCD.
611 Starkenburg.  Observers M. Busch, R. Stoss.  0.45-m f/4.4 reflector + CCD.
658 Dominion Astrophysical Observatory.  Observer D. D. Balam.  1.82-m
    reflector + CCD.
670 Camarillo.  Observer J. E. Rogers.  0.30-m f/6.7 Helin Telescope + CCD.
704 Lincoln Laboratory ETS, New Mexico.  Observers M. Blythe, F. Shelly,
    M. Bezpalko, M. Elowitz, R. Huber, L. Manguso.  Measurers J. Stuart,
    R. Sayer, J. B. Evans.  1.0-m f/2.15 reflector + CCD.
837 Jupiter.  Observer L. Sikes.  Measurer B. Segal.  0.36-m f/11
    Schmidt-Cassegrain + CCD.

Orbital elements:
2000 KW43
Epoch 2000 May 16.0 TT = JDT 2451680.5                  Williams
M  35.61756              (2000.0)            P               Q
n   0.56597639     Peri.   63.23621     -0.75214572     -0.51868253
a   1.4474509      Node    82.85302     +0.35741256     -0.83932188
e   0.4761632      Incl.   24.18516     +0.55365429     -0.16281037
P   1.74           H   19.8           G   0.15
From 42 observations 2000 May 29-June 1.

Ephemeris:
2000 KW43                a,e,i = 1.45, 0.48, 24                  q = 0.7582
Date    TT    R. A. (2000) Decl.     Delta      r     Elong.  Phase     V
2000 05 26    16 02.75   +30 30.4    0.230    1.170   128.3    42.8    18.6
2000 05 31    15 45.93   +19 01.9    0.248    1.208   137.5    34.6    18.6
2000 06 05    15 34.17   +09 01.1    0.276    1.246   142.9    29.4    18.8
2000 06 10    15 26.16   +00 47.5    0.314    1.284   144.6    27.3    19.0
2000 06 15    15 21.03   -05 46.6    0.358    1.321   143.4    27.3    19.4
2000 06 20    15 18.14   -10 58.8    0.409    1.357   140.6    28.4    19.8
2000 06 25    15 17.07   -15 07.5    0.464    1.393   137.1    29.8    20.1
2000 06 30    15 17.49   -18 27.8    0.523    1.428   133.3    31.2    20.5
2000 07 05    15 19.19   -21 11.5    0.586    1.462   129.6    32.4    20.8
2000 07 10    15 21.99   -23 27.2    0.651    1.495   126.0    33.4    21.1
2000 07 15    15 25.72   -25 21.3    0.719    1.528   122.4    34.2    21.4
2000 07 20    15 30.25   -26 58.4    0.789    1.559   119.0    34.8    21.7
2000 07 25    15 35.49   -28 22.1    0.860    1.590   115.6    35.2    21.9

Gareth V. Williams           (C) Copyright 2000 MPC           M.P.E.C. 2000-L03

Read MPEC 2000-L02 Read MPEC 2000-L04


MPEC number:

Enter an MPEC number in one of the following forms:

  • 1997-B01 (the full form)
  • J97B01 (the packed version of the full form)
  • B01 (the abbreviated form)

Valid HTML 4.01!